K3XY-2 Weather Reports


time (UTC)temp
C
wind
direction
speed
KPH
gust
KPH
rain 1hr
cm
rain 24hr
cm
rain mn
cm
humidity
%
barometer
mb
20260505101907 -17 0.0 0.0 0.00 0.00 0.00 1009.6
20260505100907 -17 0.0 0.0 0.00 0.00 0.00 1009.6
20260505095907 -17 0.0 0.0 0.00 0.00 0.00 1009.4
20260505094907 -17 0.0 0.0 0.00 0.00 0.00 1009.3
20260505093907 -17 0.0 0.0 0.00 0.00 0.00 1009.3
20260505092907 -17 0.0 0.0 0.00 0.00 0.00 1009.3
20260505091907 -17 0.0 0.0 0.00 0.00 0.00 1009.2
20260505090907 -17 0.0 0.0 0.00 0.00 0.00 1009.3
20260505085907 -17 0.0 0.0 0.00 0.00 0.00 1009.3
20260505084907 -17 0.0 0.0 0.00 0.00 0.00 1009.2
20260505083907 -17 0.0 0.0 0.00 0.00 0.00 1009.2
20260505082907 -17 0.0 0.0 0.00 0.00 0.00 1009.2
20260505081907 -17 0.0 0.0 0.00 0.00 0.00 1009.2
20260505080907 -17 0.0 0.0 0.00 0.00 0.00 1009.2
20260505075907 -17 0.0 0.0 0.00 0.00 0.00 1009.1
20260505074907 -17 0.0 0.0 0.00 0.00 0.00 1009.0
20260505073906 -17 0.0 0.0 0.00 0.00 0.00 1009.1
20260505072907 -17 0.0 0.0 0.00 0.00 0.00 1009.1
20260505071907 -17 0.0 0.0 0.00 0.00 0.00 1009.2
20260505070907 -17 0.0 0.0 0.00 0.00 0.00 1009.3
20260505065906 -17 0.0 0.0 0.00 0.00 0.00 1009.3
20260505064907 -17 0.0 0.0 0.00 0.00 0.00 1009.2
20260505063907 -17 0.0 0.0 0.00 0.00 0.00 1009.2
20260505062907 -17 0.0 0.0 0.00 0.00 0.00 1009.1
20260505061906 -17 0.0 0.0 0.00 0.00 0.00 1009.2
20260505060907 -17 0.0 0.0 0.00 0.00 0.00 1009.2
20260505055907 14 0.0 0.0 0.00 0.00 0.00 1009.1
20260505054907 14 0 0.0 0.0 0.00 0.00 0.00 67 1009.4
20260505053906 14 0 0.0 0.0 0.00 0.00 0.00 66 1009.4
20260505052907 15 0 0.0 0.0 0.00 0.00 0.00 66 1009.4
20260505051907 15 0 0.0 0.0 0.00 0.00 0.00 64 1009.5
20260505050907 15 0 0.0 0.0 0.00 0.00 0.00 64 1009.5
20260505040906 15 0 0.0 0.0 0.00 0.00 0.00 59 1009.5
20260505035906 15 0 0.0 0.0 0.00 0.00 0.00 59 1009.3
20260505034907 15 0 0.0 0.0 0.00 0.00 0.00 57 1009.1
20260505033907 15 0 0.0 0.0 0.00 0.00 0.00 57 1009.2
20260505032906 15 0 0.0 0.0 0.00 0.00 0.00 57 1009.3
20260505031906 15 0 0.0 0.0 0.00 0.00 0.00 57 1009.3
20260505030907 15 0 0.0 0.0 0.00 0.00 0.00 56 1009.3
20260505025907 15 0 0.0 0.0 0.00 0.00 0.00 58 1009.4
20260505024907 15 0 0.0 0.0 0.00 0.00 0.00 56 1009.3
20260505023906 15 0 0.0 0.0 0.00 0.00 0.00 57 1009.2
20260505022906 15 0 0.0 0.0 0.00 0.00 0.00 55 1009.4
20260505021907 16 0 0.0 0.0 0.00 0.00 0.00 56 1009.6
20260505020907 16 0 0.0 0.0 0.00 0.00 0.00 55 1009.6
20260505015907 16 0 0.0 0.0 0.00 0.00 0.00 54 1009.6
20260505014906 16 0 0.0 0.0 0.00 0.00 0.00 55 1009.5
20260505013906 16 0 0.0 0.0 0.00 0.00 0.00 54 1009.6
20260505012907 16 0 0.0 0.0 0.00 0.00 0.00 54 1009.4
20260505011907 16 0 0.0 0.0 0.00 0.00 0.00 54 1009.3
20260505010907 16 0 0.0 0.0 0.00 0.00 0.00 52 1009.3
20260505005906 17 0 0.0 0.0 0.00 0.00 0.00 52 1009.2
20260505004906 17 0 0.0 0.0 0.00 0.00 0.00 51 1009.0
20260505003907 17 0 0.0 0.0 0.00 0.00 0.00 50 1008.9
20260505002907 18 0 0.0 0.0 0.00 0.00 0.00 50 1008.8
20260505001906 18 0 0.0 0.0 0.00 0.00 0.00 49 1008.8
20260505000906 18 0 0.0 0.0 0.00 0.00 0.00 47 1008.7
20260504235906 19 0 0.0 0.0 0.00 0.00 0.00 46 1008.6
20260504234907 19 0 0.0 0.0 0.00 0.00 0.00 45 1008.6
20260504233907 20 0 0.0 0.0 0.00 0.00 0.00 45 1008.5
20260504232906 20 0 0.0 0.0 0.00 0.00 0.00 44 1008.5
20260504231906 20 0 0.0 0.0 0.00 0.00 0.00 43 1008.5
20260504230906 20 0 0.0 0.0 0.00 0.00 0.00 42 1008.4
20260504225906 20 0 0.0 0.0 0.00 0.00 0.00 42 1008.4
20260504224907 20 0 0.0 0.0 0.00 0.00 0.00 41 1008.4
20260504223906 21 0 0.0 0.0 0.00 0.00 0.00 40 1008.4
20260504222906 21 0 0.0 0.0 0.00 0.00 0.00 41 1008.3
20260504221906 21 0 0.0 0.0 0.00 0.00 0.00 40 1008.5
20260504220906 21 0 0.0 0.0 0.00 0.00 0.00 40 1008.5
20260504215907 21 0 0.0 0.0 0.00 0.00 0.00 39 1008.5
20260504214906 21 0 0.0 0.0 0.00 0.00 0.00 39 1008.5
20260504213906 22 0 0.0 0.0 0.00 0.00 0.00 39 1008.6
20260504212906 21 0 0.0 0.0 0.00 0.00 0.00 41 1008.6
20260504211907 21 0 0.0 0.0 0.00 0.00 0.00 40 1008.6
20260504210907 21 0 0.0 0.0 0.00 0.00 0.00 40 1008.6
20260504205906 21 0 0.0 0.0 0.00 0.00 0.00 40 1008.6
20260504204906 22 0 0.0 0.0 0.00 0.00 0.00 45 1008.7
20260504203906 22 0 0.0 0.0 0.00 0.00 0.00 41 1008.6
20260504202907 21 0 0.0 0.0 0.00 0.00 0.00 39 1008.7
20260504201906 22 0 0.0 0.0 0.00 0.00 0.00 40 1008.9
20260504200906 22 0 0.0 0.0 0.00 0.00 0.00 41 1008.9
20260504195906 22 0 0.0 0.0 0.00 0.00 0.00 41 1009.4
20260504194907 22 0 0.0 0.0 0.00 0.00 0.00 40 1009.4
20260504193906 22 0 0.0 0.0 0.00 0.00 0.00 42 1009.5
20260504192906 22 0 0.0 0.0 0.00 0.00 0.00 40 1009.7
20260504191906 22 0 0.0 0.0 0.00 0.00 0.00 41 1009.7
20260504190906 22 0 0.0 0.0 0.00 0.00 0.00 41 1009.9
20260504185906 22 0 0.0 0.0 0.00 0.00 0.00 44 1009.9
20260504184906 22 0 0.0 0.0 0.00 0.00 0.00 42 1010.1
20260504183906 22 0 0.0 0.0 0.00 0.00 0.00 39 1010.2
20260504182906 22 0 0.0 0.0 0.00 0.00 0.00 45 1010.3
20260504181906 22 0 0.0 0.0 0.00 0.00 0.00 41 1010.5
20260504180906 21 0 0.0 0.0 0.00 0.00 0.00 43 1010.7
20260504175906 21 0 0.0 0.0 0.00 0.00 0.00 37 1010.9
20260504174906 22 0 0.0 0.0 0.00 0.00 0.00 40 1011.0
20260504173906 21 0 0.0 0.0 0.00 0.00 0.00 41 1011.1
20260504172906 21 0 0.0 0.0 0.00 0.00 0.00 41 1011.3
20260504170905 21 0 0.0 0.0 0.00 0.00 0.00 43 1011.5
20260504150906 18 0 0.0 0.0 0.00 0.00 0.00 45 1013.1
20260504140906 -17 0.0 0.0 0.00 0.00 0.00 1013.3